Regional Weather Roundup
Issued by NWS Upton, NY

Current Version | Previous Version | Text Only | Print | Product List | Glossary Off
Versions: 1 2 3 4 5 6 7 8 9 10 11 12 13 14 15 16 17 18 19 20 21 22 23 24 25 26 27 28 29 30 31 32 33 34 35 36 37 38 39 40 41 42 43 44 45 46 47 48 49 50
426 ASUS41 KOKX 210405 RWROKX Regional Weather Roundup National Weather Service New York NY 1200 AM EDT SAT APR 21 2018 Note: "FAIR" indicates few or no clouds below 12,000 feet with no significant weather and/or obstructions to visibility. NYZ071-072-176-178-NJZ106-104-210500- New York City Metro Area CITY SKY/WX TMP DP RH WIND PRES REMARKS Central Park FAIR 41 23 48 NW7 30.39R Bronx Bot Gard N/A 39 23 52 NW7 30.37 WCI 34 Bronx Lehman C N/A 41 25 52 NW5 N/A LaGuardia Arpt FAIR 43 25 49 NW9 30.37R Queens College N/A 41 25 52 NW8 N/A Kennedy Intl FAIR 40 24 53 NW8 30.38R WCI 34 Breezy Point N/A 41 N/A N/A N8 N/A Brooklyn Coll N/A 41 25 52 NW8 N/A Staten Island N/A 41 25 52 N8 N/A Newark/Liberty FAIR 42 23 46 N13 30.38R Teterboro FAIR 40 24 53 NW12 30.37R WCI 33 $$ NYZ177-179-078>081-210500- Long Island New York CITY SKY/WX TMP DP RH WIND PRES REMARKS Jones Beach N/A 41 N/A N/A NW8 N/A Wantagh N/A 39 27 60 NW6 N/A WCI 35 Hempstead N/A 41 27 56 NW3 30.39 Matinecock Pt N/A 41 N/A N/A NW8 N/A Farmingdale FAIR 40 24 53 NW7 30.36R MacArthur/ISP FAIR 40 26 57 NW9 30.33R WCI 34 Stony Brook N/A 39 28 65 N8 N/A WCI 34 Shirley FAIR 40 27 59 NW10 30.33R WCI 33 Mt Sinai Harb N/A N/A N/A N/A NW9G15 N/A Westhampton FAIR 39 26 59 NW9 30.33R WCI 33 East Hampton FAIR 39 26 58 NW6 30.31R WCI 35 Southold N/A 41 30 65 N13 N/A Montauk N/A 44 30 57 NW10 30.30S $$ NYZ052-065-067-210500- Hudson Valley CITY SKY/WX TMP DP RH WIND PRES REMARKS White Plains FAIR 36 23 59 NW6 30.34R WCI 31 Larchmont Harb N/A 39 N/A N/A NW5 N/A Croton On Huds N/A 37 N/A N/A MISG N/A Somers N/A 36 25 64 NW2 N/A Brewster N/A 34 25 69 N6 N/A WCI 29 Newburgh CLEAR 34 25 69 VRB6 30.36R WCI 29 Montgomery FAIR 37 24 59 NW5 30.35R WCI 33 Otisville N/A 36 27 69 NW7 N/A WCI 30 Warwick N/A 36 25 64 W3 N/A Suffern N/A 37 25 60 NW6 N/A WCI 33 Poughkeepsie FAIR 32 24 72 CALM 30.35S Albany FAIR 37 24 59 NW12 30.34S WCI 29 $$ NJZ001-105-106-008-010-013-015-019>022-104-210500- New Jersey CITY SKY/WX TMP DP RH WIND PRES REMARKS Newark/Liberty FAIR 42 23 46 N13 30.38R Teterboro FAIR 40 24 53 NW12 30.37R WCI 33 Caldwell FAIR 39 23 52 NW7 30.38S WCI 34 Somerville FAIR 36 25 64 NW5 30.37R WCI 32 Linden FAIR 41 22 47 N8 30.39S Perth Amboy N/A 41 N/A N/A N9 N/A Sussex FAIR 32 24 72 CALM 30.37S Andover N/A 32 25 75 CALM 30.37S Trenton FAIR 40 23 50 N5 30.39R Millville FAIR 42 24 49 N7 30.39R Atlantic City FAIR 40 26 57 N8 30.38R WCI 34 Wrightstown FAIR 39 24 56 NW10 30.36 WCI 32 Toms River FAIR 38 24 57 N6 30.39R WCI 33 Belmar FAIR 40 24 53 NW10 30.39R WCI 33 $$ PAZ047>061-062-071-210500- Eastern Pennsylvania CITY SKY/WX TMP DP RH WIND PRES REMARKS Philadelphia FAIR 43 23 45 N12G23 30.41R Allentown FAIR 39 23 52 CALM 30.39S Scranton FAIR 31 24 75 CALM 30.38R $$ CTZ002-004>006-009-010-012-RIZ004-006-007-MAZ004-011-015-210500- Southern New England In CT CITY SKY/WX TMP DP RH WIND PRES REMARKS Bradley Intl FAIR 37 25 61 NW12 30.32R WCI 29 Hartford FAIR 40 25 55 NW8 30.33R WCI 34 Danbury FAIR 36 24 62 N7 30.35R WCI 30 Wtrbury/Oxford FAIR 35 24 64 NW9 30.32S WCI 28 Norwalk Harbor N/A 39 N/A N/A NW6 N/A WCI 35 Bridgeport FAIR 40 24 53 NW9 30.34R WCI 34 Meriden FAIR 38 25 59 NW9 30.33R WCI 31 New Haven FAIR 41 24 51 NW8 30.33R Chester FAIR 37 25 60 W6 30.30S WCI 33 Groton FAIR 41 26 55 NW9 30.29R Willimantic FAIR 41 26 55 NW6 30.30R In RI CITY SKY/WX TMP DP RH WIND PRES REMARKS Providence FAIR 43 25 49 NW9 30.28R Block Island FAIR 41 30 65 N9 30.29R Westerly FAIR 43 27 53 NW6 30.29R In MA CITY SKY/WX TMP DP RH WIND PRES REMARKS Boston FAIR 41 27 57 W10 30.25S Worcester FAIR 36 24 62 W14 30.23F WCI 27 Westfield FAIR 33 25 72 CALM 30.31R Provincetown FAIR 41 32 70 NW16G23 30.23S Nantucket FAIR 42 34 73 NW13 30.23R $$ ANZ330-335-338-340-345-350-353-355-210500- Coastal Marine Observations STATION/POSITION TIME SKY/WX TEMP WIND PRES VSBY WAVE AIR SEA DIR/SP/G HT/PER (UTC) (F) (DEG/KT/KT) (MB) (MI) (FT/S) NY Harb Entrance 0350 43 44 350/ 12/ 16 1028.2 3/ 4 20 S Fire Island 0350 43 42 340/ 17/ 21 1027.0 4/ 5 23 SSW Montauk P 0350 42 42 310/ 17/ 21 1025.7 3/ 4 15 E Barnegat Li 0330 44 N/A 5/ 5 Hudson Canyon 0350 44 44 350/ 17/ 23 1026.2 4/ 5 Kings Point 0342 42 45 20/ 8/ 10 1029.2 Execution Rocks NOT AVBL Western LI Sound NOT AVBL Central LI Sound 0345 42 340/ 16/ 19 N/A 2 Robbins Reef 0342 42 340/ 9/ 11 1029.2 $$ >>>>>>>>>>>>>>>>>>>>>>>>>>>> KEY <<<<<<<<<<<<<<<<<<<<<<<<<<< > < > SKY/WX - Sky Condition/Present Weather < > TMP - Temperature in Fahrenheit < > DP - Dew Point in Fahrenheit < > RH - Relative Humidity in Percent < > WIND - Direction (from) and Speed in MPH < > PRES - Mean Sea Level Pressure (inches of Hg) < > WCI - Wind Chill Index < > VSB - Visibility in Miles < > HX - Heat Index < > TC - Temperature in Celsius < > VRB - Varibale Wind Direction < > < >>>>>>>>>>>>>>>>>>>>>>>>>>>> KEY <<<<<<<<<<<<<<<<<<<<<<<<<<<

USA.gov is the U.S. government's official web portal to all federal, state and local government web resources and services.